owner,sensor,date,latitude,longitude,vertical_datum,sea_water_practical_salinity,qcFlag 
TCOON,ioos:station:TCOON:043:1,2013-05-01T00:00:00Z,27.8838,-97.5332,0.0,38.7,1111122 
TCOON,ioos:station:TCOON:043:1,2013-05-01T02:00:00Z,27.8838,-97.5332,0.0,38.7,1111122 
TCOON,ioos:station:TCOON:043:1,2013-05-01T02:30:00Z,27.8838,-97.5332,0.0,36.7,1111122 
TCOON,ioos:station:TCOON:043:1,2013-05-01T03:30:00Z,27.8838,-97.5332,0.0,37.4,1111122 
TCOON,ioos:station:TCOON:043:1,2013-05-01T04:30:00Z,27.8838,-97.5332,0.0,38.1,1111122 
TCOON,ioos:station:TCOON:043:1,2013-05-01T05:30:00Z,27.8838,-97.5332,0.0,37.2,1111122 
TCOON,ioos:station:TCOON:043:1,2013-05-01T08:00:00Z,27.8838,-97.5332,0.0,37.6,1111122 
TCOON,ioos:station:TCOON:043:1,2013-05-01T08:30:00Z,27.8838,-97.5332,0.0,38.3,1111122 
TCOON,ioos:station:TCOON:043:1,2013-05-01T10:30:00Z,27.8838,-97.5332,0.0,37.3,1111122 
TCOON,ioos:station:TCOON:043:1,2013-05-01T12:00:00Z,27.8838,-97.5332,0.0,39.6,1111122 
TCOON,ioos:station:TCOON:043:1,2013-05-01T14:30:00Z,27.8838,-97.5332,0.0,38.8,1111122 
TCOON,ioos:station:TCOON:043:1,2013-05-01T17:00:00Z,27.8838,-97.5332,0.0,42.1,1111122 
TCOON,ioos:station:TCOON:043:1,2013-05-01T18:00:00Z,27.8838,-97.5332,0.0,41.5,1111122 
TCOON,ioos:station:TCOON:043:1,2013-05-01T19:00:00Z,27.8838,-97.5332,0.0,40.5,1111122 
TCOON,ioos:station:TCOON:043:1,2013-05-01T21:30:00Z,27.8838,-97.5332,0.0,37.3,1111122 
TCOON,ioos:station:TCOON:043:1,2013-05-01T22:00:00Z,27.8838,-97.5332,0.0,37.5,1111122 
TCOON,ioos:station:TCOON:043:1,2013-05-01T22:30:00Z,27.8838,-97.5332,0.0,38.0,1111122 
TCOON,ioos:station:TCOON:043:1,2013-05-01T23:00:00Z,27.8838,-97.5332,0.0,37.8,1111122 
TCOON,ioos:station:TCOON:043:1,2013-05-01T23:30:00Z,27.8838,-97.5332,0.0,37.8,1111122 
TCOON,ioos:station:TCOON:043:1,2013-05-02T00:00:00Z,27.8838,-97.5332,0.0,37.6,1111122 
TCOON,ioos:station:TCOON:043:1,2013-05-02T00:30:00Z,27.8838,-97.5332,0.0,37.8,1111122 
TCOON,ioos:station:TCOON:043:1,2013-05-02T01:30:00Z,27.8838,-97.5332,0.0,38.1,1111122 
TCOON,ioos:station:TCOON:043:1,2013-05-02T03:30:00Z,27.8838,-97.5332,0.0,38.4,1111122 
TCOON,ioos:station:TCOON:043:1,2013-05-02T04:30:00Z,27.8838,-97.5332,0.0,38.0,1111122 
TCOON,ioos:station:TCOON:043:1,2013-05-02T05:00:00Z,27.8838,-97.5332,0.0,37.2,1111122 
TCOON,ioos:station:TCOON:043:1,2013-05-02T06:30:00Z,27.8838,-97.5332,0.0,37.0,1111122 
TCOON,ioos:station:TCOON:043:1,2013-05-02T07:00:00Z,27.8838,-97.5332,0.0,37.4,1111122 
TCOON,ioos:station:TCOON:043:1,2013-05-02T11:30:00Z,27.8838,-97.5332,0.0,39.3,1111122 
TCOON,ioos:station:TCOON:043:1,2013-05-02T13:30:00Z,27.8838,-97.5332,0.0,40.7,1111122 
TCOON,ioos:station:TCOON:043:1,2013-05-02T18:00:00Z,27.8838,-97.5332,0.0,41.5,1111122 
TCOON,ioos:station:TCOON:043:1,2013-05-02T19:30:00Z,27.8838,-97.5332,0.0,43.3,1111122 
TCOON,ioos:station:TCOON:043:1,2013-05-02T21:00:00Z,27.8838,-97.5332,0.0,40.2,1111122 
TCOON,ioos:station:TCOON:043:1,2013-05-02T22:30:00Z,27.8838,-97.5332,0.0,44.9,1111122 
TCOON,ioos:station:TCOON:043:1,2013-05-02T23:30:00Z,27.8838,-97.5332,0.0,45.0,1111122 
TCOON,ioos:station:TCOON:043:1,2013-05-03T01:00:00Z,27.8838,-97.5332,0.0,45.6,1111122 
TCOON,ioos:station:TCOON:043:1,2013-05-03T05:30:00Z,27.8838,-97.5332,0.0,45.0,1111122 
TCOON,ioos:station:TCOON:043:1,2013-05-03T06:00:00Z,27.8838,-97.5332,0.0,46.6,1111122 
TCOON,ioos:station:TCOON:043:1,2013-05-03T07:30:00Z,27.8838,-97.5332,0.0,45.2,1111122 
TCOON,ioos:station:TCOON:043:1,2013-05-03T08:00:00Z,27.8838,-97.5332,0.0,46.9,1111122 
TCOON,ioos:station:TCOON:043:1,2013-05-03T09:30:00Z,27.8838,-97.5332,0.0,47.4,1111122 
TCOON,ioos:station:TCOON:043:1,2013-05-03T10:00:00Z,27.8838,-97.5332,0.0,47.1,1111122 
TCOON,ioos:station:TCOON:043:1,2013-05-03T12:00:00Z,27.8838,-97.5332,0.0,49.1,1111122 
TCOON,ioos:station:TCOON:043:1,2013-05-03T20:30:00Z,27.8838,-97.5332,0.0,49.1,1111122 
TCOON,ioos:station:TCOON:043:1,2013-05-03T21:00:00Z,27.8838,-97.5332,0.0,49.5,1111122 
TCOON,ioos:station:TCOON:043:1,2013-05-03T22:30:00Z,27.8838,-97.5332,0.0,50.3,1111122 
TCOON,ioos:station:TCOON:043:1,2013-05-03T23:30:00Z,27.8838,-97.5332,0.0,49.8,1111122 
TCOON,ioos:station:TCOON:043:1,2013-05-04T00:00:00Z,27.8838,-97.5332,0.0,51.2,1111122 
TCOON,ioos:station:TCOON:043:1,2013-05-04T04:00:00Z,27.8838,-97.5332,0.0,51.8,1111122 
TCOON,ioos:station:TCOON:043:1,2013-05-04T06:00:00Z,27.8838,-97.5332,0.0,50.3,1111122 
TCOON,ioos:station:TCOON:043:1,2013-05-04T06:30:00Z,27.8838,-97.5332,0.0,51.0,1111122 
TCOON,ioos:station:TCOON:043:1,2013-05-04T07:00:00Z,27.8838,-97.5332,0.0,50.4,1111122 
TCOON,ioos:station:TCOON:043:1,2013-05-04T08:00:00Z,27.8838,-97.5332,0.0,49.2,1111122 
TCOON,ioos:station:TCOON:043:1,2013-05-04T09:30:00Z,27.8838,-97.5332,0.0,51.0,1111122 
TCOON,ioos:station:TCOON:043:1,2013-05-04T10:30:00Z,27.8838,-97.5332,0.0,48.5,1111122 
TCOON,ioos:station:TCOON:043:1,2013-05-04T12:00:00Z,27.8838,-97.5332,0.0,50.9,1111122 
TCOON,ioos:station:TCOON:043:1,2013-05-04T14:30:00Z,27.8838,-97.5332,0.0,51.8,1111122 
TCOON,ioos:station:TCOON:043:1,2013-05-04T15:00:00Z,27.8838,-97.5332,0.0,51.5,1111122 
TCOON,ioos:station:TCOON:043:1,2013-05-04T17:00:00Z,27.8838,-97.5332,0.0,50.8,1111122 
TCOON,ioos:station:TCOON:043:1,2013-05-04T18:00:00Z,27.8838,-97.5332,0.0,50.5,1111122 
TCOON,ioos:station:TCOON:043:1,2013-05-04T18:30:00Z,27.8838,-97.5332,0.0,51.1,1111122 
TCOON,ioos:station:TCOON:043:1,2013-05-04T20:30:00Z,27.8838,-97.5332,0.0,50.4,1111122 
TCOON,ioos:station:TCOON:043:1,2013-05-04T23:00:00Z,27.8838,-97.5332,0.0,50.5,1111122 
TCOON,ioos:station:TCOON:043:1,2013-05-04T23:30:00Z,27.8838,-97.5332,0.0,49.9,1111122 
TCOON,ioos:station:TCOON:043:1,2013-05-05T01:30:00Z,27.8838,-97.5332,0.0,42.5,1111122 
TCOON,ioos:station:TCOON:043:1,2013-05-05T03:00:00Z,27.8838,-97.5332,0.0,43.0,1111122 
TCOON,ioos:station:TCOON:043:1,2013-05-05T04:00:00Z,27.8838,-97.5332,0.0,43.1,1111122 
TCOON,ioos:station:TCOON:043:1,2013-05-05T04:30:00Z,27.8838,-97.5332,0.0,42.9,1111122 
TCOON,ioos:station:TCOON:043:1,2013-05-05T05:00:00Z,27.8838,-97.5332,0.0,42.6,1111122 
TCOON,ioos:station:TCOON:043:1,2013-05-05T05:30:00Z,27.8838,-97.5332,0.0,43.2,1111122 
TCOON,ioos:station:TCOON:043:1,2013-05-05T06:30:00Z,27.8838,-97.5332,0.0,41.8,1111122 
TCOON,ioos:station:TCOON:043:1,2013-05-05T08:00:00Z,27.8838,-97.5332,0.0,42.6,1111122 
TCOON,ioos:station:TCOON:043:1,2013-05-05T08:30:00Z,27.8838,-97.5332,0.0,41.2,1111122 
TCOON,ioos:station:TCOON:043:1,2013-05-05T09:00:00Z,27.8838,-97.5332,0.0,41.5,1111122 
TCOON,ioos:station:TCOON:043:1,2013-05-05T09:30:00Z,27.8838,-97.5332,0.0,42.8,1111122 
TCOON,ioos:station:TCOON:043:1,2013-05-05T12:30:00Z,27.8838,-97.5332,0.0,44.1,1111122 
TCOON,ioos:station:TCOON:043:1,2013-05-05T14:30:00Z,27.8838,-97.5332,0.0,44.7,1111122 
TCOON,ioos:station:TCOON:043:1,2013-05-05T18:00:00Z,27.8838,-97.5332,0.0,47.0,1111122 
TCOON,ioos:station:TCOON:043:1,2013-05-05T19:00:00Z,27.8838,-97.5332,0.0,50.9,1111122 
TCOON,ioos:station:TCOON:043:1,2013-05-05T19:30:00Z,27.8838,-97.5332,0.0,49.6,1111122 
TCOON,ioos:station:TCOON:043:1,2013-05-05T22:30:00Z,27.8838,-97.5332,0.0,50.3,1111122 
TCOON,ioos:station:TCOON:043:1,2013-05-05T23:00:00Z,27.8838,-97.5332,0.0,49.6,1111122 
TCOON,ioos:station:TCOON:043:1,2013-05-06T00:00:00Z,27.8838,-97.5332,0.0,46.7,1111122 
TCOON,ioos:station:TCOON:043:1,2013-05-06T02:00:00Z,27.8838,-97.5332,0.0,43.2,1111122 
TCOON,ioos:station:TCOON:043:1,2013-05-06T03:30:00Z,27.8838,-97.5332,0.0,47.0,1111122 
TCOON,ioos:station:TCOON:043:1,2013-05-06T05:00:00Z,27.8838,-97.5332,0.0,50.3,1111122 
TCOON,ioos:station:TCOON:043:1,2013-05-06T05:30:00Z,27.8838,-97.5332,0.0,50.5,1111122 
TCOON,ioos:station:TCOON:043:1,2013-05-06T06:00:00Z,27.8838,-97.5332,0.0,49.3,1111122 
TCOON,ioos:station:TCOON:043:1,2013-05-06T08:00:00Z,27.8838,-97.5332,0.0,51.6,1111122 
TCOON,ioos:station:TCOON:043:1,2013-05-06T08:30:00Z,27.8838,-97.5332,0.0,51.1,1111122 
TCOON,ioos:station:TCOON:043:1,2013-05-06T10:00:00Z,27.8838,-97.5332,0.0,52.3,1111122 
TCOON,ioos:station:TCOON:043:1,2013-05-06T11:00:00Z,27.8838,-97.5332,0.0,52.1,1111122 
TCOON,ioos:station:TCOON:043:1,2013-05-06T11:30:00Z,27.8838,-97.5332,0.0,51.7,1111122 
TCOON,ioos:station:TCOON:043:1,2013-05-06T12:30:00Z,27.8838,-97.5332,0.0,53.7,1111122 
TCOON,ioos:station:TCOON:043:1,2013-05-06T13:00:00Z,27.8838,-97.5332,0.0,50.7,1111122 
TCOON,ioos:station:TCOON:043:1,2013-05-06T14:00:00Z,27.8838,-97.5332,0.0,52.6,1111122 
TCOON,ioos:station:TCOON:043:1,2013-05-06T15:30:00Z,27.8838,-97.5332,0.0,50.0,1111122 
TCOON,ioos:station:TCOON:043:1,2013-05-06T17:30:00Z,27.8838,-97.5332,0.0,44.1,1111122 
TCOON,ioos:station:TCOON:043:1,2013-05-06T19:30:00Z,27.8838,-97.5332,0.0,44.4,1111122 
TCOON,ioos:station:TCOON:043:1,2013-05-06T21:00:00Z,27.8838,-97.5332,0.0,42.4,1111122 
TCOON,ioos:station:TCOON:043:1,2013-05-06T23:30:00Z,27.8838,-97.5332,0.0,40.5,1111122 
TCOON,ioos:station:TCOON:043:1,2013-05-07T01:00:00Z,27.8838,-97.5332,0.0,41.0,1111122 
TCOON,ioos:station:TCOON:043:1,2013-05-07T01:30:00Z,27.8838,-97.5332,0.0,40.8,1111122 
TCOON,ioos:station:TCOON:043:1,2013-05-07T02:00:00Z,27.8838,-97.5332,0.0,40.1,1111122 
TCOON,ioos:station:TCOON:043:1,2013-05-07T02:30:00Z,27.8838,-97.5332,0.0,39.9,1111122 
TCOON,ioos:station:TCOON:043:1,2013-05-07T05:30:00Z,27.8838,-97.5332,0.0,43.1,1111122 
TCOON,ioos:station:TCOON:043:1,2013-05-07T09:00:00Z,27.8838,-97.5332,0.0,46.7,1111122 
TCOON,ioos:station:TCOON:043:1,2013-05-07T09:30:00Z,27.8838,-97.5332,0.0,45.4,1111122 
TCOON,ioos:station:TCOON:043:1,2013-05-07T10:00:00Z,27.8838,-97.5332,0.0,47.4,1111122 
TCOON,ioos:station:TCOON:043:1,2013-05-07T13:30:00Z,27.8838,-97.5332,0.0,50.2,1111122 
TCOON,ioos:station:TCOON:043:1,2013-05-07T18:30:00Z,27.8838,-97.5332,0.0,41.6,1111122 
TCOON,ioos:station:TCOON:043:1,2013-05-07T19:00:00Z,27.8838,-97.5332,0.0,40.9,1111122 
TCOON,ioos:station:TCOON:043:1,2013-05-07T22:00:00Z,27.8838,-97.5332,0.0,40.2,1111122 
TCOON,ioos:station:TCOON:043:1,2013-05-07T22:30:00Z,27.8838,-97.5332,0.0,40.3,1111122 
TCOON,ioos:station:TCOON:043:1,2013-05-08T00:00:00Z,27.8838,-97.5332,0.0,40.6,1111122 
TCOON,ioos:station:TCOON:043:1,2013-05-08T01:00:00Z,27.8838,-97.5332,0.0,41.0,1111122 
TCOON,ioos:station:TCOON:043:1,2013-05-08T02:30:00Z,27.8838,-97.5332,0.0,40.0,1111122 
TCOON,ioos:station:TCOON:043:1,2013-05-08T03:00:00Z,27.8838,-97.5332,0.0,39.9,1111122 
TCOON,ioos:station:TCOON:043:1,2013-05-08T05:00:00Z,27.8838,-97.5332,0.0,38.5,1111122 
TCOON,ioos:station:TCOON:043:1,2013-05-08T06:00:00Z,27.8838,-97.5332,0.0,41.4,1111122 
TCOON,ioos:station:TCOON:043:1,2013-05-08T08:00:00Z,27.8838,-97.5332,0.0,43.4,1111122 
TCOON,ioos:station:TCOON:043:1,2013-05-08T09:00:00Z,27.8838,-97.5332,0.0,44.1,1111122 
TCOON,ioos:station:TCOON:043:1,2013-05-08T12:30:00Z,27.8838,-97.5332,0.0,47.1,1111122 
TCOON,ioos:station:TCOON:043:1,2013-05-08T13:00:00Z,27.8838,-97.5332,0.0,47.2,1111122 
TCOON,ioos:station:TCOON:043:1,2013-05-08T13:30:00Z,27.8838,-97.5332,0.0,47.9,1111122 
TCOON,ioos:station:TCOON:043:1,2013-05-08T14:30:00Z,27.8838,-97.5332,0.0,46.6,1111122 
TCOON,ioos:station:TCOON:043:1,2013-05-08T20:00:00Z,27.8838,-97.5332,0.0,38.6,1111122 
TCOON,ioos:station:TCOON:043:1,2013-05-09T01:00:00Z,27.8838,-97.5332,0.0,38.0,1111122 
TCOON,ioos:station:TCOON:043:1,2013-05-09T02:30:00Z,27.8838,-97.5332,0.0,38.1,1111122 
TCOON,ioos:station:TCOON:043:1,2013-05-09T03:30:00Z,27.8838,-97.5332,0.0,37.9,1111122 
TCOON,ioos:station:TCOON:043:1,2013-05-09T04:30:00Z,27.8838,-97.5332,0.0,37.9,1111122 
TCOON,ioos:station:TCOON:043:1,2013-05-09T05:30:00Z,27.8838,-97.5332,0.0,37.9,1111122 
TCOON,ioos:station:TCOON:043:1,2013-05-09T06:00:00Z,27.8838,-97.5332,0.0,38.2,1111122 
TCOON,ioos:station:TCOON:043:1,2013-05-09T06:30:00Z,27.8838,-97.5332,0.0,38.0,1111122 
TCOON,ioos:station:TCOON:043:1,2013-05-09T08:00:00Z,27.8838,-97.5332,0.0,43.2,1111122 
TCOON,ioos:station:TCOON:043:1,2013-05-09T09:30:00Z,27.8838,-97.5332,0.0,41.5,1111122 
TCOON,ioos:station:TCOON:043:1,2013-05-09T12:30:00Z,27.8838,-97.5332,0.0,43.4,1111122 
TCOON,ioos:station:TCOON:043:1,2013-05-09T13:30:00Z,27.8838,-97.5332,0.0,43.4,1111122 
TCOON,ioos:station:TCOON:043:1,2013-05-09T14:30:00Z,27.8838,-97.5332,0.0,43.5,1111122 
TCOON,ioos:station:TCOON:043:1,2013-05-09T15:30:00Z,27.8838,-97.5332,0.0,43.5,1111122 
TCOON,ioos:station:TCOON:043:1,2013-05-09T18:30:00Z,27.8838,-97.5332,0.0,42.0,1111122 
TCOON,ioos:station:TCOON:043:1,2013-05-09T19:00:00Z,27.8838,-97.5332,0.0,42.2,1111122 
TCOON,ioos:station:TCOON:043:1,2013-05-09T23:30:00Z,27.8838,-97.5332,0.0,39.2,1111122 
TCOON,ioos:station:TCOON:043:1,2013-05-10T01:30:00Z,27.8838,-97.5332,0.0,39.6,1111122 
TCOON,ioos:station:TCOON:043:1,2013-05-10T02:00:00Z,27.8838,-97.5332,0.0,37.2,1111122 
TCOON,ioos:station:TCOON:043:1,2013-05-10T03:30:00Z,27.8838,-97.5332,0.0,38.0,1111122 
TCOON,ioos:station:TCOON:043:1,2013-05-10T04:30:00Z,27.8838,-97.5332,0.0,40.0,1111122 
TCOON,ioos:station:TCOON:043:1,2013-05-10T05:00:00Z,27.8838,-97.5332,0.0,38.8,1111122 
TCOON,ioos:station:TCOON:043:1,2013-05-10T07:30:00Z,27.8838,-97.5332,0.0,42.9,1111122 
TCOON,ioos:station:TCOON:043:1,2013-05-10T09:00:00Z,27.8838,-97.5332,0.0,41.2,1111122 
TCOON,ioos:station:TCOON:043:1,2013-05-10T11:00:00Z,27.8838,-97.5332,0.0,42.0,1111122 
TCOON,ioos:station:TCOON:043:1,2013-05-10T12:00:00Z,27.8838,-97.5332,0.0,41.5,1111122 
TCOON,ioos:station:TCOON:043:1,2013-05-10T12:30:00Z,27.8838,-97.5332,0.0,39.6,1111122 
TCOON,ioos:station:TCOON:043:1,2013-05-10T13:00:00Z,27.8838,-97.5332,0.0,41.4,1111122 
TCOON,ioos:station:TCOON:043:1,2013-05-10T13:30:00Z,27.8838,-97.5332,0.0,41.2,1111122 
TCOON,ioos:station:TCOON:043:1,2013-05-10T19:00:00Z,27.8838,-97.5332,0.0,39.9,1111122 
TCOON,ioos:station:TCOON:043:1,2013-05-10T19:30:00Z,27.8838,-97.5332,0.0,39.2,1111122 
TCOON,ioos:station:TCOON:043:1,2013-05-10T20:00:00Z,27.8838,-97.5332,0.0,38.4,1111122 
TCOON,ioos:station:TCOON:043:1,2013-05-10T21:30:00Z,27.8838,-97.5332,0.0,38.5,1111122 
TCOON,ioos:station:TCOON:043:1,2013-05-10T22:30:00Z,27.8838,-97.5332,0.0,37.7,1111122 
TCOON,ioos:station:TCOON:043:1,2013-05-10T23:00:00Z,27.8838,-97.5332,0.0,37.6,1111122 
TCOON,ioos:station:TCOON:043:1,2013-05-10T23:30:00Z,27.8838,-97.5332,0.0,37.6,1111122 
TCOON,ioos:station:TCOON:043:1,2013-05-11T00:30:00Z,27.8838,-97.5332,0.0,39.8,1111122 
TCOON,ioos:station:TCOON:043:1,2013-05-11T01:30:00Z,27.8838,-97.5332,0.0,36.8,1111122 
TCOON,ioos:station:TCOON:043:1,2013-05-11T03:00:00Z,27.8838,-97.5332,0.0,38.9,1111122 
TCOON,ioos:station:TCOON:043:1,2013-05-11T03:30:00Z,27.8838,-97.5332,0.0,39.4,1111122 
TCOON,ioos:station:TCOON:043:1,2013-05-11T04:00:00Z,27.8838,-97.5332,0.0,38.6,1111122 
TCOON,ioos:station:TCOON:043:1,2013-05-11T04:30:00Z,27.8838,-97.5332,0.0,38.5,1111122 
TCOON,ioos:station:TCOON:043:1,2013-05-11T06:00:00Z,27.8838,-97.5332,0.0,40.7,1111122 
TCOON,ioos:station:TCOON:043:1,2013-05-11T06:30:00Z,27.8838,-97.5332,0.0,40.7,1111122 
TCOON,ioos:station:TCOON:043:1,2013-05-11T07:30:00Z,27.8838,-97.5332,0.0,38.4,1111122 
TCOON,ioos:station:TCOON:043:1,2013-05-11T09:30:00Z,27.8838,-97.5332,0.0,39.0,1111122 
TCOON,ioos:station:TCOON:043:1,2013-05-11T10:00:00Z,27.8838,-97.5332,0.0,40.9,1111122 
TCOON,ioos:station:TCOON:043:1,2013-05-11T12:30:00Z,27.8838,-97.5332,0.0,43.4,1111122 
TCOON,ioos:station:TCOON:043:1,2013-05-11T13:00:00Z,27.8838,-97.5332,0.0,43.1,1111122 
TCOON,ioos:station:TCOON:043:1,2013-05-11T13:30:00Z,27.8838,-97.5332,0.0,40.3,1111122 
TCOON,ioos:station:TCOON:043:1,2013-05-11T14:30:00Z,27.8838,-97.5332,0.0,40.1,1111122 
TCOON,ioos:station:TCOON:043:1,2013-05-11T15:00:00Z,27.8838,-97.5332,0.0,37.7,1111122 
TCOON,ioos:station:TCOON:043:1,2013-05-11T15:30:00Z,27.8838,-97.5332,0.0,40.5,1111122 
TCOON,ioos:station:TCOON:043:1,2013-05-11T16:30:00Z,27.8838,-97.5332,0.0,42.5,1111122 
TCOON,ioos:station:TCOON:043:1,2013-05-11T18:30:00Z,27.8838,-97.5332,0.0,42.8,1111122 
TCOON,ioos:station:TCOON:043:1,2013-05-11T19:00:00Z,27.8838,-97.5332,0.0,42.3,1111122 
TCOON,ioos:station:TCOON:043:1,2013-05-11T20:30:00Z,27.8838,-97.5332,0.0,38.8,1111122 
TCOON,ioos:station:TCOON:043:1,2013-05-11T22:00:00Z,27.8838,-97.5332,0.0,37.3,1111122 
TCOON,ioos:station:TCOON:043:1,2013-05-11T23:30:00Z,27.8838,-97.5332,0.0,38.0,1111122 
TCOON,ioos:station:TCOON:043:1,2013-05-12T01:00:00Z,27.8838,-97.5332,0.0,38.4,1111122 
TCOON,ioos:station:TCOON:043:1,2013-05-12T01:30:00Z,27.8838,-97.5332,0.0,39.3,1111122 
TCOON,ioos:station:TCOON:043:1,2013-05-12T03:00:00Z,27.8838,-97.5332,0.0,39.6,1111122 
TCOON,ioos:station:TCOON:043:1,2013-05-12T05:30:00Z,27.8838,-97.5332,0.0,37.8,1111122 
TCOON,ioos:station:TCOON:043:1,2013-05-12T07:00:00Z,27.8838,-97.5332,0.0,39.4,1111122 
TCOON,ioos:station:TCOON:043:1,2013-05-12T09:00:00Z,27.8838,-97.5332,0.0,38.7,1111122 
TCOON,ioos:station:TCOON:043:1,2013-05-12T10:00:00Z,27.8838,-97.5332,0.0,38.2,1111122 
TCOON,ioos:station:TCOON:043:1,2013-05-12T10:30:00Z,27.8838,-97.5332,0.0,40.6,1111122 
TCOON,ioos:station:TCOON:043:1,2013-05-12T11:00:00Z,27.8838,-97.5332,0.0,42.1,1111122 
TCOON,ioos:station:TCOON:043:1,2013-05-12T11:30:00Z,27.8838,-97.5332,0.0,42.8,1111122 
TCOON,ioos:station:TCOON:043:1,2013-05-12T12:00:00Z,27.8838,-97.5332,0.0,42.8,1111122 
TCOON,ioos:station:TCOON:043:1,2013-05-12T15:30:00Z,27.8838,-97.5332,0.0,41.4,1111122 
TCOON,ioos:station:TCOON:043:1,2013-05-12T17:00:00Z,27.8838,-97.5332,0.0,41.8,1111122 
TCOON,ioos:station:TCOON:043:1,2013-05-12T17:30:00Z,27.8838,-97.5332,0.0,42.2,1111122 
TCOON,ioos:station:TCOON:043:1,2013-05-12T18:00:00Z,27.8838,-97.5332,0.0,40.4,1111122 
TCOON,ioos:station:TCOON:043:1,2013-05-12T18:30:00Z,27.8838,-97.5332,0.0,41.2,1111122 
TCOON,ioos:station:TCOON:043:1,2013-05-12T19:00:00Z,27.8838,-97.5332,0.0,40.9,1111122 
TCOON,ioos:station:TCOON:043:1,2013-05-12T20:00:00Z,27.8838,-97.5332,0.0,41.7,1111122 
TCOON,ioos:station:TCOON:043:1,2013-05-12T21:00:00Z,27.8838,-97.5332,0.0,42.4,1111122 
TCOON,ioos:station:TCOON:043:1,2013-05-12T22:00:00Z,27.8838,-97.5332,0.0,41.8,1111122 
TCOON,ioos:station:TCOON:043:1,2013-05-13T00:30:00Z,27.8838,-97.5332,0.0,35.6,1111122 
TCOON,ioos:station:TCOON:043:1,2013-05-13T05:30:00Z,27.8838,-97.5332,0.0,38.9,1111122 
TCOON,ioos:station:TCOON:043:1,2013-05-13T07:30:00Z,27.8838,-97.5332,0.0,39.1,1111122 
TCOON,ioos:station:TCOON:043:1,2013-05-13T08:00:00Z,27.8838,-97.5332,0.0,39.5,1111122 
TCOON,ioos:station:TCOON:043:1,2013-05-13T08:30:00Z,27.8838,-97.5332,0.0,37.5,1111122 
TCOON,ioos:station:TCOON:043:1,2013-05-13T09:00:00Z,27.8838,-97.5332,0.0,37.8,1111122 
TCOON,ioos:station:TCOON:043:1,2013-05-13T09:30:00Z,27.8838,-97.5332,0.0,37.8,1111122 
TCOON,ioos:station:TCOON:043:1,2013-05-13T10:00:00Z,27.8838,-97.5332,0.0,37.7,1111122 
TCOON,ioos:station:TCOON:043:1,2013-05-13T13:00:00Z,27.8838,-97.5332,0.0,39.0,1111122 
TCOON,ioos:station:TCOON:043:1,2013-05-13T20:00:00Z,27.8838,-97.5332,0.0,38.0,1111122 
TCOON,ioos:station:TCOON:043:1,2013-05-13T21:30:00Z,27.8838,-97.5332,0.0,37.4,1111122 
TCOON,ioos:station:TCOON:043:1,2013-05-13T22:00:00Z,27.8838,-97.5332,0.0,36.9,1111122 
TCOON,ioos:station:TCOON:043:1,2013-05-14T00:00:00Z,27.8838,-97.5332,0.0,37.8,1111122 
TCOON,ioos:station:TCOON:043:1,2013-05-14T02:30:00Z,27.8838,-97.5332,0.0,37.0,1111122 
TCOON,ioos:station:TCOON:043:1,2013-05-14T03:30:00Z,27.8838,-97.5332,0.0,37.6,1111122 
TCOON,ioos:station:TCOON:043:1,2013-05-14T04:00:00Z,27.8838,-97.5332,0.0,36.6,1111122 
TCOON,ioos:station:TCOON:043:1,2013-05-14T05:30:00Z,27.8838,-97.5332,0.0,36.9,1111122 
TCOON,ioos:station:TCOON:043:1,2013-05-14T07:00:00Z,27.8838,-97.5332,0.0,37.2,1111122 
TCOON,ioos:station:TCOON:043:1,2013-05-14T09:00:00Z,27.8838,-97.5332,0.0,36.8,1111122 
TCOON,ioos:station:TCOON:043:1,2013-05-14T11:00:00Z,27.8838,-97.5332,0.0,36.8,1111122 
TCOON,ioos:station:TCOON:043:1,2013-05-14T12:00:00Z,27.8838,-97.5332,0.0,38.2,1111122 
TCOON,ioos:station:TCOON:043:1,2013-05-14T12:30:00Z,27.8838,-97.5332,0.0,37.7,1111122 
TCOON,ioos:station:TCOON:043:1,2013-05-14T13:30:00Z,27.8838,-97.5332,0.0,38.3,1111122 
TCOON,ioos:station:TCOON:043:1,2013-05-14T15:00:00Z,27.8838,-97.5332,0.0,38.5,1111122 
TCOON,ioos:station:TCOON:043:1,2013-05-14T16:30:00Z,27.8838,-97.5332,0.0,38.8,1111122 
TCOON,ioos:station:TCOON:043:1,2013-05-14T18:00:00Z,27.8838,-97.5332,0.0,38.0,1111122 
TCOON,ioos:station:TCOON:043:1,2013-05-14T18:30:00Z,27.8838,-97.5332,0.0,37.9,1111122 
TCOON,ioos:station:TCOON:043:1,2013-05-14T19:30:00Z,27.8838,-97.5332,0.0,37.3,1111122 
TCOON,ioos:station:TCOON:043:1,2013-05-14T20:00:00Z,27.8838,-97.5332,0.0,37.3,1111122 
TCOON,ioos:station:TCOON:043:1,2013-05-14T22:00:00Z,27.8838,-97.5332,0.0,35.9,1111122 
TCOON,ioos:station:TCOON:043:1,2013-05-14T22:30:00Z,27.8838,-97.5332,0.0,35.5,1111122 
TCOON,ioos:station:TCOON:043:1,2013-05-14T23:30:00Z,27.8838,-97.5332,0.0,36.0,1111122 
TCOON,ioos:station:TCOON:043:1,2013-05-15T01:00:00Z,27.8838,-97.5332,0.0,35.7,1111122 
TCOON,ioos:station:TCOON:043:1,2013-05-15T03:30:00Z,27.8838,-97.5332,0.0,35.5,1111122 
TCOON,ioos:station:TCOON:043:1,2013-05-15T04:00:00Z,27.8838,-97.5332,0.0,35.6,1111122 
TCOON,ioos:station:TCOON:043:1,2013-05-15T04:30:00Z,27.8838,-97.5332,0.0,35.9,1111122 
TCOON,ioos:station:TCOON:043:1,2013-05-15T06:30:00Z,27.8838,-97.5332,0.0,36.2,1111122 
TCOON,ioos:station:TCOON:043:1,2013-05-15T07:00:00Z,27.8838,-97.5332,0.0,35.9,1111122 
TCOON,ioos:station:TCOON:043:1,2013-05-15T08:30:00Z,27.8838,-97.5332,0.0,36.4,1111122 
TCOON,ioos:station:TCOON:043:1,2013-05-15T09:00:00Z,27.8838,-97.5332,0.0,35.8,1111122 
TCOON,ioos:station:TCOON:043:1,2013-05-15T10:30:00Z,27.8838,-97.5332,0.0,35.3,1111122 
TCOON,ioos:station:TCOON:043:1,2013-05-15T11:00:00Z,27.8838,-97.5332,0.0,36.2,1111122 
TCOON,ioos:station:TCOON:043:1,2013-05-15T12:00:00Z,27.8838,-97.5332,0.0,36.8,1111122 
TCOON,ioos:station:TCOON:043:1,2013-05-15T12:30:00Z,27.8838,-97.5332,0.0,35.9,1111122 
TCOON,ioos:station:TCOON:043:1,2013-05-15T13:30:00Z,27.8838,-97.5332,0.0,34.9,1111122 
TCOON,ioos:station:TCOON:043:1,2013-05-15T15:30:00Z,27.8838,-97.5332,0.0,35.6,1111122 
TCOON,ioos:station:TCOON:043:1,2013-05-15T18:30:00Z,27.8838,-97.5332,0.0,36.2,1111122 
TCOON,ioos:station:TCOON:043:1,2013-05-15T20:00:00Z,27.8838,-97.5332,0.0,36.6,1111122 
TCOON,ioos:station:TCOON:043:1,2013-05-15T20:30:00Z,27.8838,-97.5332,0.0,34.9,1111122 
TCOON,ioos:station:TCOON:043:1,2013-05-15T21:00:00Z,27.8838,-97.5332,0.0,35.2,1111122 
TCOON,ioos:station:TCOON:043:1,2013-05-15T21:30:00Z,27.8838,-97.5332,0.0,36.1,1111122 
TCOON,ioos:station:TCOON:043:1,2013-05-15T22:00:00Z,27.8838,-97.5332,0.0,34.8,1111122 
TCOON,ioos:station:TCOON:043:1,2013-05-16T00:30:00Z,27.8838,-97.5332,0.0,35.4,1111122 
TCOON,ioos:station:TCOON:043:1,2013-05-16T01:00:00Z,27.8838,-97.5332,0.0,34.6,1111122 
TCOON,ioos:station:TCOON:043:1,2013-05-16T02:00:00Z,27.8838,-97.5332,0.0,35.1,1111122 
TCOON,ioos:station:TCOON:043:1,2013-05-16T04:00:00Z,27.8838,-97.5332,0.0,34.2,1111122 
TCOON,ioos:station:TCOON:043:1,2013-05-16T04:30:00Z,27.8838,-97.5332,0.0,35.6,1111122 
TCOON,ioos:station:TCOON:043:1,2013-05-16T05:30:00Z,27.8838,-97.5332,0.0,34.7,1111122 
TCOON,ioos:station:TCOON:043:1,2013-05-16T07:30:00Z,27.8838,-97.5332,0.0,34.8,1111122 
TCOON,ioos:station:TCOON:043:1,2013-05-16T10:00:00Z,27.8838,-97.5332,0.0,35.6,1111122 
TCOON,ioos:station:TCOON:043:1,2013-05-16T11:00:00Z,27.8838,-97.5332,0.0,35.3,1111122 
TCOON,ioos:station:TCOON:043:1,2013-05-16T12:30:00Z,27.8838,-97.5332,0.0,36.5,1111122 
TCOON,ioos:station:TCOON:043:1,2013-05-16T13:30:00Z,27.8838,-97.5332,0.0,36.6,1111122 
TCOON,ioos:station:TCOON:043:1,2013-05-16T21:30:00Z,27.8838,-97.5332,0.0,40.0,1111122 
TCOON,ioos:station:TCOON:043:1,2013-05-16T22:00:00Z,27.8838,-97.5332,0.0,39.9,1111122 
TCOON,ioos:station:TCOON:043:1,2013-05-16T23:00:00Z,27.8838,-97.5332,0.0,40.1,1111122 
TCOON,ioos:station:TCOON:043:1,2013-05-16T23:30:00Z,27.8838,-97.5332,0.0,40.1,1111122 
TCOON,ioos:station:TCOON:043:1,2013-05-17T00:00:00Z,27.8838,-97.5332,0.0,40.1,1111122 
TCOON,ioos:station:TCOON:043:1,2013-05-17T00:30:00Z,27.8838,-97.5332,0.0,40.1,1111122 
TCOON,ioos:station:TCOON:043:1,2013-05-17T01:00:00Z,27.8838,-97.5332,0.0,40.2,1111122 